Location: Castiglione Fibocchi
(43.5333°N, 11.7667°E)
Time: 18:59:27
(UTC+00:00)

PSLV R/B - Pass Details

Date: 15 August 2020
Orbit: 594 x 629 km, 97.9° (Epoch: 20 September)

Event Time Altitude Azimuth Distance (km) Brightness Sun altitude
Rises 03:29:47 0° 9° (N) 2,927 7.6 -8.8°
Reaches altitude 10° 03:32:01 10° 6° (N) 2,012 6.7 -8.4°
Maximum altitude 03:36:20 60° 287° (WNW) 716 3.7 -7.7°
Drops below altitude 10° 03:40:35 10° 207° (SSW) 1,980 5.7 -7.1°
Enters shadow 03:42:26 - 204° (SSW) 2,741 6.4 -6.8°
